Home > Weather > Edmonton > Past weeks

Flag for Canada Weather for the Past 2 Weeks in Edmonton, Alberta, Canada

Now
17 °F

Cold.


Feels Like: 5 °F
Forecast: 15 / 23 °F
Wind: 9 mph from Southeast

Location: Edmonton Municipal

Current Time: Feb 12, 2016 at 5:05:30 AM

Latest Report: Feb 12, 2016 at 4:00 AM


Visibility: N/A

Pressure: 30.47 "Hg (27.86 "Hg at 692m altitude)

Humidity: 88%

Dew point: 14 °F

Location of EdmontonLocation

Historic Weather in Edmonton — Graph

°F

Edmonton Temperature Yesterday

Maximum temperature yesterday: 25 °F (at 1:00 PM)
Minimum temperature yesterday: 18 °F (at 9:00 PM)
Average temperature yesterday: 22 °F

High & Low Weather Summary for the Past Weeks

 TemperatureHumidityPressure
High49 °F (Feb 9, 4:00 PM)98% (Jan 31, 8:00 AM)30.50 "Hg (Jan 31, 8:00 AM)
Low12 °F (Feb 3, 7:00 AM)32% (Feb 6, 1:00 PM)29.30 "Hg (Jan 28, 3:00 PM)
Average29 °F73%29.98 "Hg
* Reported Jan 28 4:00 AM — Feb 12 4:00 AM, Edmonton, Weather by CustomWeather, © 2016

Note: Actual official high and low records may vary slightly from our data, if they occured in-between our weather recording intervals... More about our weather records

Advertising

Edmonton Weather History for the Previous 24 Hours

 ConditionsComfort  
Time TempWeatherWind HumidityBarometerVisibility
4:00 AM
Fri, Feb 12
17 °FCold.9 mph88%30.47 "HgN/A
2:00 AM18 °FCold.7 mph81%30.48 "HgN/A
1:00 AM17 °FCold.8 mph86%30.48 "HgN/A
12:00 AM17 °FCold.9 mph85%30.49 "HgN/A
11:00 PM
Thu, Feb 11
18 °FCold.8 mph85%30.50 "HgN/A
10:00 PM18 °FCold.5 mph88%30.50 "HgN/A
9:00 PM18 °FCold.10 mph86%30.48 "HgN/A
8:00 PM19 °FCold.10 mph87%30.47 "HgN/A
7:00 PM19 °FCold.8 mph87%30.45 "HgN/A
6:00 PM20 °FCold.8 mph95%30.43 "HgN/A
5:00 PM21 °FCold.7 mph87%30.41 "HgN/A
4:00 PM22 °FCold.6 mph87%30.39 "HgN/A
3:00 PM23 °FCold.8 mph87%30.36 "HgN/A
2:00 PM25 °FCold.5 mph83%30.34 "HgN/A
1:00 PM25 °FCold.5 mph85%30.32 "HgN/A
12:00 PM24 °FCold.5 mph88%30.31 "HgN/A
11:00 AM24 °FCold.5 mph91%30.30 "HgN/A
10:00 AM23 °FCold.1 mph93%30.29 "HgN/A
9:00 AM22 °FCold.5 mph94%30.27 "HgN/A
8:00 AM21 °FCold.5 mph95%30.26 "HgN/A
7:00 AM21 °FCold.5 mph95%30.24 "HgN/A
6:00 AM21 °FCold.5 mph94%30.23 "HgN/A
5:00 AM22 °FCold.6 mph94%30.21 "HgN/A
Weather by CustomWeather, © 2016

See weather overviewHow to use our weather pages